星链-30327 (STARLINK-30327 )

导读

STARLINK-30327是美国SpaceX公司星链(Starlink)星座中的卫星,于北京时间2023年8月27日发射入轨。作为星链全球卫星互联网项目组成部分,属于第二代星座部署批次,运行于近地轨道,配备氪离子推进系统与相控阵通信天线,可提供高速低延迟宽带服务,助力实现全球偏远地区网络覆盖,同时具备自主轨道机动与避碰能力,退役后会在大气层中完全销毁。

基本信息
目录编号:
57707
目录名称:
STARLINK-30327
国际标识:
2023-129K
轨道中心:
EARTH
卫星名称:
星链-30327
卫星全名:
星链-30327 (STARLINK-30327 )
卫星状态:
在轨 (已飞行1111 天)
发射日期:
2023-08-27 UTC
国别 :
美国 (US)
星等 :
--
该卫星已列入 空间交会检测服务 Space Conjunction Data Service (SCDS) ,当前飞行风险评估等级: 无高风险
轨道信息
数据来源 国际轨道数据
星历时间: 2026-09-11T14:00:02+0800
7小时前
查看轨道信息
半长轴: 6763.042km
偏心率: 0.003479
轨道倾角: 42.987°
近地点辐角 255.616°
升交点赤经 97.601°
平近点角 44.893°
近地点: 361.376km
远地点: 408.434km
周期: 92.251分钟
每日圈数: 15.609525
详细信息
固有亮度:
5
最大亮度:
0.3
卫星平台:
Starlink v2.0 mini
覆盖范围:
全球
运营商:
太空探索技术公司
运营商所在国:
美国
制造商(研发单位):
太空探索技术公司
制造商所在国:
美国
使用方式:
暂无
卫星简介
星链(Starlink)计划是由太空探索技术公司(SpaceX)提出的一个巨型低轨卫星互联网星座项目,计划在2019年至2024年间在太空搭建由约1.2万颗卫星组成的“星链”网络,其中1584颗将部署在地球上空550千米处的近地轨道,并从2020年开始工作。该卫星仍在工作。
2D轨道图
3D轨道图
轨道高度分析图
轨道倾角分析图
轨道综合分析图
查看轨道综合分析图
与全量物体交会距离演化趋势
与全量物体交会风险概率演化趋势